Regional Weather Roundup
Issued by NWS

Home | Current Version | Previous Version | Text Only | Print | Product List | Glossary Off
Versions: 1 2 3 4 5 6 7 8 9 10 11 12 13 14 15 16 17 18 19 20 21 22 23 24 25 26 27 28 29 30 31 32 33 34 35 36 37 38 39 40 41 42 43 44 45 46 47 48 49 50

215
ASUS43 KDMX 262303
RWRIA

WEATHER ROUNDUP FOR IOWA
NATIONAL WEATHER SERVICE DES MOINES IA
600 PM CDT MON SEP 26 2016

NOTE: "FAIR" INDICATES FEW OR NO CLOUDS BELOW 12,000 FEET WITH NO
SIGNIFICANT WEATHER AND/OR OBSTRUCTIONS TO VISIBILITY.

* - THESE STATIONS ARE NOT NWS STATIONS...THUS NOT UNDER NWS
QUALITY CONTROL.  THEY ALSO DO NOT REPORT WEATHER SUCH
AS PRECIPITATION OR FOG.

IAZ001>003-012>014-020>022-031>034-043>046-270000-
   NORTHWEST IOWA

CITY           SKY/WX    TMP DP  RH WIND       PRES   REMARKS
CARROLL *      SUNNY     70  41  35 W16G29    30.05F
CHEROKEE *     SUNNY     69  37  30 NW12G18   30.04F
DENISON *      SUNNY     72  41  33 NW13G23   30.04F
LE MARS *      SUNNY     72  39  30 NW13      30.06F
ORANGE CITY *  SUNNY     70  39  32 NW17G23   30.05S
SHELDON *      SUNNY     68  36  30 W15G24    30.02F
SIOUX CITY     SUNNY     73  43  33 NW13G25   30.06S
SPENCER        SUNNY     69  34  27 W21G32    30.02F
STORM LAKE *   SUNNY     70  36  28 NW16G24   30.05S
$$

IAZ055>058-069>071-079>083-090>094-270000-
   SOUTHWEST IOWA

CITY           SKY/WX    TMP DP  RH WIND       PRES   REMARKS
ATLANTIC *     SUNNY     72  41  33 W16       30.07F
AUDUBON *      SUNNY     70  41  35 NW7       30.08S
CLARINDA *       N/A     73  41  31 MISG      30.10F
COUNCIL BLFS * SUNNY     73  43  33 W7        30.07F
CRESTON *      SUNNY     70  41  35 NW16G23   30.09S
HARLAN  *      SUNNY     72  41  33 NW10      30.10F
LAMONI         SUNNY     72  42  34 W10       30.08F
RED OAK *      SUNNY     73  41  31 W10       30.08F
SHENANDOAH *   SUNNY     73  41  31 W10       30.09F
$$

IAZ047>049-059>061-072>074-084-270000-
   CENTRAL IOWA

CITY           SKY/WX    TMP DP  RH WIND       PRES   REMARKS
AMES           SUNNY     70  38  31 W15G24    30.01F
ANKENY *         N/A    N/A N/A N/A MISG        N/A
BOONE *        SUNNY     70  34  26 NW20G35   30.01F
CHARITON *       N/A     70  43  37 W7        30.06F
DES MOINES     MOSUNNY   72  38  29 W14G25    30.03F
GRINNELL*      SUNNY     70  35  27 W20       30.01F
KNOXVILLE *    SUNNY     72  37  28 W13G20    30.03F
MARSHALLTOWN   SUNNY     69  37  30 W16G26    29.99F
NEWTON *       SUNNY     72  34  25 W14G25    30.01F
PELLA *        SUNNY     71  38  29 W12G18    30.04F
PERRY *          N/A     71  35  26 W13G20    30.04F
$$

IAZ004>006-015-016-023>025-035-036-270000-
   NORTH CENTRAL IOWA

CITY           SKY/WX    TMP DP  RH WIND       PRES   REMARKS
ALGONA *       SUNNY     70  32  24 NW17G25   30.00F
CLARION *      SUNNY     68  34  28 NW21      30.00S
ESTHERVILLE    SUNNY     67  32  27 W15G24    29.99F
FORT DODGE *   SUNNY     70  37  30 W15G22    30.02F
MASON CITY     SUNNY     65  30  27 NW18G29   29.98F
FOREST CITY *    N/A     64  28  25 NW18G30   29.98S
WEBSTER CITY * SUNNY     70  36  28 W16G24    29.99F
IOWA FALLS *     N/A     70  35  28 W17G24    30.01S
$$

IAZ007>011-017>019-026>030-037>042-050>054-066-270000-
   NORTHEAST IOWA

CITY           SKY/WX    TMP DP  RH WIND       PRES   REMARKS
CEDAR RAPIDS   CLEAR     68  38  33 W16G30    29.98F
CHARLES CITY * CLEAR     66  28  24 W15G29    29.96F
CLINTON *      CLEAR     68  32  26 W14G28    29.97S
DECORAH *      CLEAR     64  30  27 W10G26    29.92S
DUBUQUE        CLEAR     65  33  30 W14G22    29.95S
MONTICELLO *   CLEAR     68  32  26 W15G23    29.96S
OELWEIN *      CLEAR     66  32  28 W18G28    29.96F
WATERLOO       CLEAR     68  33  27 W16G22    29.96F
$$

IAZ064-065-067-068-078-270000-
   EAST CENTRAL IOWA

CITY           SKY/WX    TMP DP  RH WIND       PRES   REMARKS
DAVENPORT      CLEAR     69  34  27 W17G25    29.98F
IOWA CITY      CLEAR     70  37  29 W14G20    30.00F
MUSCATINE *    CLEAR     72  34  25 W15G26    30.00S
QUAD CITIES    CLEAR     70  35  27 W13       29.98F
$$

IAZ062-063-075>077-085>089-095>099-270000-
   SOUTHEAST IOWA

CITY           SKY/WX    TMP DP  RH WIND       PRES   REMARKS
BURLINGTON     CLEAR     69  38  32 W7        30.03F
FAIRFIELD *    CLEAR     72  34  25 W13G18    30.03S
FORT MADISON *   N/A     70  37  30 W10G21    30.06S
KEOKUK *       CLEAR     72  37  28 NW10G17   30.05S
OSKALOOSA *      N/A     71  34  25 W16G28    30.04F
OTTUMWA        LGT RAIN  70  36  28 W17G23    30.04F
WASHINGTON *     N/A    N/A N/A N/A MISG        N/A
$$

ABBREVIATIONS USED IN REMARKS
   TC - TEMPERATURES IN CELSIUS
  WCI - WIND CHILL INDEX
   HX - HEAT INDEX
  VSB - VISIBILITY
$$





USA.gov is the U.S. government's official web portal to all federal, state and local government web resources and services.